EW2353 Weather Reports


time (UTC)temp
C
wind
direction
speed
KPH
gust
KPH
rain 1hr
cm
rain 24hr
cm
rain mn
cm
humidity
%
barometer
mb
20260505101827 13 221 0.0 0.0 0.30 0.43 0.36 95 1008.5
20260505101319 13 219 0.0 0.0 0.33 0.43 0.36 95 1008.7
20260505100816 13 141 0.0 0.0 0.33 0.41 0.33 95 1008.7
20260505100329 13 137 0.0 1.6 0.33 0.41 0.33 95 1009.0
20260505095822 13 224 0.0 1.6 0.33 0.41 0.33 95 1009.3
20260505095335 13 261 0.0 0.0 0.30 0.38 0.30 94 1009.5
20260505094847 13 257 0.0 0.0 0.30 0.38 0.30 94 1009.4
20260505094318 13 44 0.0 0.0 0.28 0.36 0.28 94 1009.5
20260505093852 13 58 0.0 0.0 0.25 0.33 0.25 93 1009.7
20260505093323 13 61 0.0 8.0 0.20 0.28 0.20 93 1009.8
20260505092816 13 280 0.0 4.8 0.15 0.23 0.15 92 1009.8
20260505092329 13 315 0.0 6.4 0.08 0.15 0.08 92 1009.7
20260505091826 14 61 0.0 8.0 0.03 0.10 0.03 92 1009.6
20260505091319 14 263 0.0 9.7 0.03 0.10 0.03 91 1009.6
20260505090832 14 240 0.0 4.8 0.00 0.08 0.00 90 1009.4
20260505090323 15 285 0.0 4.8 0.00 0.08 0.00 89 1009.2
20260505085816 15 84 0.0 0.0 0.00 0.08 0.00 88 1009.2
20260505085350 15 98 0.0 1.6 0.00 0.08 0.00 87 1009.0
20260505084821 15 30 0.0 1.6 0.00 0.08 0.00 87 1008.7
20260505084313 15 4 0.0 1.6 0.00 0.08 0.00 86 1008.6
20260505083826 15 297 0.0 12.9 0.00 0.08 0.00 86 1008.3
20260505083322 15 339 0.0 12.9 0.00 0.08 0.00 85 1008.3
20260505082815 15 202 0.0 8.0 0.00 0.08 0.00 84 1008.6
20260505082328 15 333 1.6 3.2 0.00 0.08 0.00 83 1008.0
20260505081821 15 349 0.0 0.0 0.00 0.08 0.00 83 1007.8
20260505081313 16 331 0.0 0.0 0.00 0.08 0.00 81 1007.6
20260505080826 16 331 0.0 0.0 0.00 0.08 0.00 79 1007.3
20260505080318 16 331 0.0 0.0 0.00 0.08 0.00 78 1007.1
20260505075810 16 324 0.0 8.0 0.00 0.08 0.00 78 1007.2
20260505075327 16 350 0.0 11.3 0.00 0.08 0.00 77 1007.4
20260505074840 16 340 3.2 11.3 0.00 0.08 0.00 74 1007.7
20260505074312 16 214 0.0 0.0 0.00 0.08 0.00 73 1007.6
20260505073825 16 214 0.0 0.0 0.00 0.08 0.00 74 1007.5
20260505073317 16 214 0.0 0.0 0.00 0.08 0.00 73 1007.3
20260505072847 16 214 0.0 0.0 0.00 0.08 0.00 73 1007.3
20260505072332 16 214 0.0 0.0 0.00 0.08 0.00 73 1007.3
20260505071824 16 214 0.0 1.6 0.00 0.08 0.00 73 1007.3
20260505071316 16 214 0.0 1.6 0.00 0.08 0.00 72 1007.1
20260505070849 16 214 0.0 0.0 0.00 0.08 0.00 72 1007.0
20260505070321 16 214 0.0 0.0 0.00 0.08 0.00 71 1007.0
20260505065817 17 214 0.0 4.8 0.00 0.08 0.00 71 1007.1
20260505065310 17 214 1.6 4.8 0.00 0.08 0.00 70 1007.2
20260505064823 16 221 1.6 3.2 0.00 0.08 0.00 71 1007.1
20260505064316 16 208 0.0 3.2 0.00 0.08 0.00 71 1007.1
20260505063829 16 245 0.0 3.2 0.00 0.08 0.00 71 1007.2
20260505063322 16 214 0.0 4.8 0.00 0.08 0.00 71 1007.1
20260505062835 17 248 0.0 6.4 0.00 0.08 0.00 70 1007.0
20260505062326 17 241 1.6 8.0 0.00 0.08 0.00 70 1006.8
20260505061824 17 215 1.6 12.9 0.00 0.08 0.00 69 1006.8
20260505061317 17 225 6.4 12.9 0.00 0.08 0.00 69 1006.7
20260505060829 17 220 6.4 11.3 0.00 0.08 0.00 69 1006.8
20260505060342 17 210 6.4 16.1 0.00 0.08 0.00 69 1006.7
20260505055814 17 217 6.4 16.1 0.00 0.08 0.00 68 1006.6
20260505055347 17 225 6.4 14.5 0.00 0.08 0.00 68 1006.5
20260505054818 17 238 6.4 14.5 0.00 0.08 0.00 68 1006.4
20260505054332 17 213 6.4 14.5 0.00 0.08 0.00 68 1006.3
20260505053844 17 217 8.0 14.5 0.00 0.08 0.00 68 1006.2
20260505053315 17 219 8.0 14.5 0.00 0.08 0.00 68 1006.0
20260505052812 17 178 6.4 14.5 0.00 0.08 0.00 68 1006.1
20260505052325 17 216 8.0 17.7 0.00 0.08 0.00 68 1006.0
20260505051838 17 210 9.7 17.7 0.00 0.08 0.00 68 1005.9
20260505051350 17 210 9.7 16.1 0.00 0.08 0.00 68 1005.9
20260505050821 17 205 8.0 17.7 0.00 0.08 0.00 68 1005.8
20260505050335 17 246 9.7 16.1 0.00 0.08 0.00 68 1005.9
20260505041323 17 209 8.0 14.5 0.00 0.08 0.00 68 1006.2
20260505040816 17 160 8.0 14.5 0.00 0.08 0.00 69 1006.3
20260505040328 17 221 6.4 14.5 0.00 0.08 0.00 69 1006.5
20260505035820 18 212 4.8 14.5 0.00 0.08 0.00 68 1006.5
20260505035317 18 214 8.0 12.9 0.00 0.08 0.00 68 1006.5
20260505034830 18 212 6.4 14.5 0.00 0.08 0.08 68 1006.5
20260505034323 18 226 8.0 14.5 0.00 0.08 0.08 68 1006.6
20260505033816 18 232 6.4 9.7 0.00 0.08 0.08 68 1006.6
20260505033329 18 210 8.0 12.9 0.00 0.08 0.08 68 1006.6
20260505032822 18 222 6.4 12.9 0.00 0.08 0.08 67 1006.6
20260505032314 18 225 6.4 11.3 0.00 0.08 0.08 67 1006.6
20260505031811 18 168 4.8 9.7 0.00 0.08 0.08 67 1006.7
20260505031324 18 197 4.8 9.7 0.00 0.08 0.08 67 1006.7
20260505030837 18 223 4.8 9.7 0.00 0.08 0.08 67 1006.7
20260505030329 18 226 4.8 9.7 0.00 0.08 0.08 67 1006.7
20260505025821 18 215 4.8 12.9 0.00 0.08 0.08 66 1006.6
20260505025335 18 214 4.8 12.9 0.00 0.08 0.08 66 1006.6
20260505024827 18 219 4.8 9.7 0.00 0.08 0.08 66 1006.5
20260505024339 18 218 6.4 9.7 0.00 0.08 0.08 65 1006.5
20260505023811 18 220 4.8 9.7 0.00 0.08 0.08 66 1006.4
20260505023324 18 214 4.8 9.7 0.00 0.08 0.08 65 1006.4
20260505022821 18 231 4.8 9.7 0.00 0.08 0.08 66 1006.3
20260505022314 18 212 4.8 11.3 0.00 0.08 0.08 66 1006.2
20260505021827 18 216 4.8 11.3 0.00 0.08 0.08 66 1006.1
20260505021319 18 217 4.8 11.3 0.00 0.08 0.08 66 1006.0
20260505020832 18 222 3.2 8.0 0.00 0.08 0.08 67 1005.9
20260505020324 18 214 4.8 8.0 0.00 0.08 0.08 67 1005.8
20260505015817 18 214 3.2 6.4 0.00 0.08 0.08 67 1005.7
20260505015329 18 211 3.2 8.0 0.00 0.08 0.08 66 1005.6
20260505014822 18 226 3.2 8.0 0.00 0.08 0.08 66 1005.5
20260505014318 19 212 3.2 8.0 0.00 0.08 0.08 65 1005.4
20260505013811 19 227 3.2 6.4 0.00 0.08 0.08 65 1005.4
20260505013323 19 215 3.2 8.0 0.00 0.08 0.08 65 1005.4
20260505012816 19 234 3.2 8.0 0.00 0.08 0.08 65 1005.4
20260505012329 19 210 1.6 8.0 0.00 0.08 0.08 64 1005.4
20260505011822 20 203 1.6 9.7 0.00 0.08 0.08 63 1005.4
20260505011315 20 236 3.2 9.7 0.00 0.08 0.08 62 1005.3
20260505010811 20 212 6.4 12.9 0.00 0.08 0.08 62 1005.3
20260505010324 20 232 6.4 12.9 0.00 0.08 0.08 61 1005.3
20260505005818 20 221 6.4 14.5 0.00 0.08 0.08 61 1005.3
20260505005350 20 224 8.0 14.5 0.00 0.08 0.08 61 1005.2
20260505004822 20 178 8.0 12.9 0.00 0.08 0.08 61 1005.3
20260505004315 20 214 6.4 11.3 0.00 0.08 0.08 61 1005.3
20260505003828 20 224 4.8 12.9 0.00 0.08 0.08 61 1005.4
20260505003320 21 205 4.8 14.5 0.00 0.08 0.08 60 1005.3
20260505002813 21 228 6.4 14.5 0.00 0.08 0.08 59 1005.4
20260505002330 21 205 8.0 20.9 0.00 0.08 0.08 58 1005.3
20260505001823 21 198 9.7 20.9 0.00 0.08 0.08 57 1005.3
20260505001316 21 210 9.7 19.3 0.00 0.08 0.08 56 1005.3
20260505000846 22 217 9.7 19.3 0.00 0.08 0.08 56 1005.3
20260505000318 22 203 9.7 16.1 0.00 0.08 0.08 56 1005.3
20260504235830 22 200 8.0 19.3 0.00 0.08 0.08 55 1005.4
20260504235322 22 218 9.7 20.9 0.00 0.08 0.08 54 1005.5
20260504234815 22 207 11.3 24.1 0.00 0.08 0.08 53 1005.5
20260504234312 23 213 9.7 24.1 0.00 0.08 0.08 53 1005.5
20260504233825 23 247 12.9 25.7 0.00 0.08 0.08 51 1005.6
20260504233317 23 206 14.5 25.7 0.00 0.08 0.08 51 1005.7
20260504232811 23 213 12.9 30.6 0.00 0.08 0.08 50 1005.7
20260504232323 23 203 14.5 30.6 0.00 0.08 0.08 50 1005.8
20260504231816 23 199 12.9 25.7 0.00 0.08 0.08 50 1005.9
20260504231329 23 214 11.3 25.7 0.00 0.08 0.08 51 1005.9
20260504230822 23 244 9.7 30.6 0.00 0.08 0.08 52 1006.0
20260504230319 22 197 14.5 30.6 0.00 0.08 0.08 51 1006.1
20260504225812 23 216 11.3 32.2 0.00 0.08 0.08 50 1006.1
20260504225325 23 208 14.5 32.2 0.00 0.08 0.08 49 1006.1
20260504224838 23 198 16.1 30.6 0.00 0.08 0.08 49 1006.1
20260504224330 23 243 19.3 29.0 0.00 0.08 0.08 50 1006.1
20260504223822 23 198 9.7 20.9 0.00 0.08 0.08 56 1006.3
20260504223314 23 210 11.3 20.9 0.00 0.08 0.08 56 1006.2
20260504222823 23 189 4.8 11.3 0.00 0.08 0.08 59 1006.3
20260504222315 23 133 4.8 9.7 0.00 0.08 0.08 58 1006.4
20260504221811 23 219 3.2 12.9 0.00 0.08 0.08 57 1006.5
20260504221324 23 221 3.2 12.9 0.00 0.08 0.08 57 1006.5
20260504220817 22 193 4.8 9.7 0.00 0.08 0.08 58 1006.6
20260504220330 22 219 3.2 8.0 0.00 0.08 0.08 59 1006.6
20260504215843 22 214 4.8 8.0 0.00 0.08 0.08 56 1006.6
20260504215315 22 215 1.6 8.0 0.00 0.08 0.08 56 1006.6
20260504214825 22 248 1.6 9.7 0.00 0.08 0.08 57 1006.6
20260504214318 22 211 3.2 11.3 0.00 0.08 0.08 57 1006.6
20260504213814 22 199 4.8 14.5 0.00 0.08 0.08 56 1006.5
20260504213327 22 262 4.8 14.5 0.00 0.08 0.08 57 1006.6
20260504212821 22 252 6.4 12.9 0.00 0.08 0.08 57 1006.5
20260504212333 22 233 6.4 17.7 0.00 0.08 0.08 56 1006.7
20260504211825 22 193 6.4 17.7 0.00 0.08 0.08 58 1007.1
20260504211317 22 184 6.4 14.5 0.00 0.08 0.08 57 1007.2
20260504210827 22 249 6.4 19.3 0.00 0.08 0.08 58 1007.4
20260504210319 22 269 9.7 20.9 0.00 0.08 0.08 57 1007.5
20260504205813 22 236 12.9 24.1 0.00 0.08 0.08 58 1007.6
20260504205329 22 274 16.1 24.1 0.00 0.08 0.08 58 1007.6
20260504204822 22 253 12.9 20.9 0.00 0.08 0.08 58 1007.7
20260504204315 22 211 11.3 19.3 0.00 0.08 0.08 58 1007.7
20260504203828 22 241 11.3 17.7 0.00 0.08 0.08 58 1007.7
20260504203320 22 231 9.7 19.3 0.00 0.08 0.08 59 1007.7
20260504202813 21 218 9.7 19.3 0.00 0.08 0.08 62 1007.7
20260504202326 21 233 12.9 24.1 0.00 0.08 0.08 62 1007.8
20260504201819 21 260 14.5 24.1 0.00 0.08 0.08 64 1008.0
20260504201316 21 252 11.3 17.7 0.00 0.08 0.08 64 1008.1
20260504200826 20 240 9.7 20.9 0.00 0.08 0.08 67 1008.2
20260504200318 20 242 12.9 24.1 0.03 0.08 0.08 67 1008.2
20260504195810 20 216 8.0 19.3 0.03 0.08 0.08 69 1008.2
20260504195323 20 212 9.7 19.3 0.03 0.08 0.08 70 1008.2
20260504194816 20 238 6.4 14.5 0.05 0.08 0.08 72 1008.3
20260504194329 20 208 8.0 14.5 0.05 0.08 0.08 73 1008.2
20260504193822 19 240 4.8 14.5 0.08 0.08 0.08 80 1008.3
20260504193319 18 199 6.4 12.9 0.08 0.08 0.08 78 1008.3
20260504192832 18 220 3.2 9.7 0.08 0.08 0.08 80 1008.3
20260504192324 17 252 6.4 14.5 0.08 0.08 0.08 81 1008.5
20260504191816 17 219 6.4 14.5 0.08 0.08 0.08 81 1008.6
20260504191329 17 216 6.4 14.5 0.08 0.08 0.08 80 1008.7
20260504190822 17 240 6.4 11.3 0.08 0.08 0.08 80 1008.7
20260504190315 17 231 0.0 12.9 0.05 0.05 0.05 80 1008.2
20260504185828 17 210 6.4 20.9 0.05 0.05 0.05 79 1008.8
20260504185324 17 259 12.9 38.6 0.05 0.05 0.05 77 1009.5
20260504184837 17 251 17.7 38.6 0.03 0.03 0.03 72 1009.3
20260504184328 18 256 11.3 19.3 0.00 0.00 0.00 74 1009.3
20260504183821 18 229 9.7 14.5 0.00 0.00 0.00 72 1008.9
20260504183314 18 210 8.0 14.5 0.00 0.00 0.00 70 1009.4
20260504182827 18 240 9.7 17.7 0.00 0.00 0.00 68 1009.4
20260504182320 19 260 11.3 20.9 0.00 0.00 0.00 66 1009.4
20260504181812 19 237 11.3 20.9 0.00 0.00 0.00 65 1009.2
20260504181325 19 250 9.7 22.5 0.00 0.00 0.00 65 1009.1
20260504180822 20 276 12.9 30.6 0.00 0.00 0.00 64 1009.2
20260504180316 20 233 17.7 30.6 0.00 0.00 0.00 63 1009.0
20260504175828 20 271 12.9 25.7 0.00 0.00 0.00 63 1008.9
20260504175321 20 243 12.9 27.4 0.00 0.00 0.00 62 1008.7
20260504174814 21 236 14.5 27.4 0.00 0.00 0.00 61 1008.7
20260504174326 21 252 16.1 25.7 0.00 0.00 0.00 60 1008.6
20260504173820 21 226 9.7 25.7 0.00 0.00 0.00 63 1008.4
20260504173316 21 224 14.5 29.0 0.00 0.00 0.00 60 1008.3
20260504172850 21 226 16.1 29.0 0.00 0.00 0.00 60 1008.2
20260504172321 21 211 12.9 22.5 0.00 0.00 0.00 61 1008.1
20260504171814 21 211 11.3 20.9 0.00 0.00 0.00 63 1008.2
20260504171327 20 208 9.7 27.4 0.00 0.00 0.00 64 1008.3
20260504170840 20 207 12.9 16.1 0.00 0.00 0.00 64 1008.3
20260504170311 20 205 9.7 19.3 0.00 0.00 0.00 65 1008.4
20260504160326 18 251 8.0 14.5 0.00 0.00 0.00 67 1009.1
20260504150834 18 250 6.4 17.7 0.00 0.00 0.00 68 1009.2
20260504150325 17 212 6.4 19.3 0.00 0.00 0.00 67 1009.2
20260504141316 16 249 8.0 17.7 0.00 0.00 0.00 72 1009.2
20260504140850 16 208 9.7 17.7 0.00 0.00 0.00 72 1009.3
20260504140342 15 232 8.0 20.9 0.00 0.00 0.00 71 1009.3
20260504130320 12 176 6.4 16.1 0.00 0.00 0.00 78 1009.5
20260504120318 11 205 6.4 12.9 0.00 0.00 0.00 78 1009.7
20260504110333 10 209 4.8 11.3 0.00 0.00 0.00 75 1009.7